Location: Shenandoah County Park
(38.9356°N, 78.4524°W)
Time: 08:01:20
(UTC-05:00)

A-11 Canister half - Visible Passes

Search period start: 04 December 2023 00:00
Search period end: 14 December 2023 00:00
Orbit: 1525 x 1684 km, 47.3° (Epoch: 02 December)

Date Brightness Start Highest point End Pass type
(mag) Time Alt. Az. Time Alt. Az. Time Alt. Az.
04 Dec 10.8 04:20:28 11° SSW 04:20:28 11° SSW 04:20:46 10° SSW visible
04 Dec 10.0 17:18:46 10° S 17:27:18 32° SE 17:35:50 10° ENE visible
04 Dec 9.0 19:21:26 10° SW 19:31:38 88° SSE 19:34:14 58° ENE visible
04 Dec 10.4 21:27:39 10° W 21:32:33 31° WNW 21:32:33 31° WNW visible
05 Dec 9.0 18:59:40 10° SW 19:09:52 86° SSE 19:13:52 44° ENE visible
05 Dec 10.0 21:05:48 10° W 21:12:10 40° WNW 21:12:10 40° WNW visible
06 Dec 9.1 18:37:55 10° SW 18:48:05 83° SSE 18:53:27 33° ENE visible
06 Dec 9.7 20:43:57 10° W 20:51:46 49° NW 20:51:46 49° NW visible
07 Dec 9.1 18:16:11 10° SW 18:26:19 80° SE 18:33:01 25° ENE visible
07 Dec 9.4 20:22:05 10° W 20:31:19 56° NNW 20:31:19 56° NNW visible
07 Dec 11.2 22:28:44 10° WNW 22:29:37 13° WNW 22:29:37 13° WNW visible
08 Dec 9.2 17:54:26 10° SW 18:04:34 77° SE 18:12:33 19° ENE visible
08 Dec 9.3 20:00:15 10° W 20:10:16 59° NNW 20:10:51 58° N visible
08 Dec 10.9 22:06:55 10° WNW 22:09:08 18° WNW 22:09:08 18° WNW visible
09 Dec 9.2 17:32:43 10° SW 17:42:47 74° SE 17:52:03 13° ENE visible
09 Dec 9.3 19:38:24 10° W 19:48:27 60° NNW 19:50:21 53° NNE visible
09 Dec 10.7 21:45:05 10° WNW 21:48:38 24° WNW 21:48:38 24° WNW visible
10 Dec 9.3 17:11:01 10° SW 17:21:02 71° SE 17:31:08 10° ENE visible
10 Dec 9.3 19:16:34 10° W 19:26:37 61° NNW 19:29:50 45° NE visible
10 Dec 10.3 21:23:15 10° WNW 21:28:08 31° NW 21:28:08 31° NW visible
11 Dec 9.3 18:54:43 10° W 19:04:47 62° NNW 19:09:18 36° NE visible
11 Dec 10.0 21:01:26 10° WNW 21:07:36 39° NW 21:07:36 39° NW visible
12 Dec 9.3 18:32:53 10° W 18:42:58 63° NNW 18:48:46 29° NE visible
12 Dec 9.7 20:39:35 10° WNW 20:47:03 46° NW 20:47:03 46° NW visible
13 Dec 9.3 18:11:03 10° W 18:21:08 65° NNW 18:28:13 22° ENE visible
13 Dec 9.5 20:17:45 10° WNW 20:26:31 52° NNW 20:26:31 52° NNW visible
13 Dec 11.1 22:23:37 10° WNW 22:24:48 15° WNW 22:24:48 15° WNW visible
